Stevens Point, WI

12:09 AM CST on February 25, 2017 (GMT -0600)
Stevens Point Municipal

Weather History for KSTE - December, 2013

Change the Weather History Date:

Saturday, December 7, 2013

  Actual Average Record
Temperature  
Mean Temperature -2 °F -  
Max Temperature 3 °F 29 °F 49 °F (1988)
Min Temperature -8 °F 14 °F -23 °F (1972)
Degree Days  
Heating Degree Days 68    
Moisture  
Dew Point -10 °F    
Average Humidity 73    
Maximum Humidity 83    
Minimum Humidity 58    
Precipitation  
Precipitation 0.00 in - - ()
Sea Level Pressure  
Sea Level Pressure 30.57 in    
Wind  
Wind Speed 5 mph (West)    
Max Wind Speed 10 mph    
Max Gust Speed -    
Visibility 10 miles    
Events      
Averages and records for this station are not official NWS values.
T = Trace of Precipitation, MM = Missing Value Source: NWS Daily Summary

Daily Weather History Graph

Daily Weather History Graph

Search for Another Location

Airport or City:

Trip Planner

Search our weather history database for the weather conditions in past years. The results will help you decide how hot, cold, wet, or windy it might be!

Date:

Astronomy

Dec. 07, 2013 Rise Set
Actual Time 7:21 AM CST 4:18 PM CST
Civil Twilight 6:48 AM CST 4:51 PM CST
Nautical Twilight 6:11 AM CST 5:27 PM CST
Astronomical Twilight 5:36 AM CST 6:03 PM CST
Moon 10:57 AM CST (12/7) 10:09 PM CST (12/7)
Length of Visible Light 10h 03m
Length of Day
8h 56m
Waxing Crescent, 29% of the Moon is Illuminated
Dec 7
Waxing Crescent
Dec 9
First Quarter
Dec 17
Full
Dec 25
Last Quarter
Jan 1
New

Hourly Weather History & Observations

Time (CST) Temp. Windchill Dew Point Humidity Pressure Visibility Wind Dir Wind Speed Gust Speed Precip Events Conditions
12:15 AM -3.6 °F -17.3 °F -8.9 °F 78% 30.51 in 10.0 mi West 6.9 mph - N/A   Clear
12:35 AM -4.0 °F -16.3 °F -9.4 °F 78% 30.51 in 10.0 mi WNW 5.8 mph - N/A   Clear
12:55 AM -4.2 °F -18.0 °F -9.6 °F 78% 30.51 in 10.0 mi WNW 6.9 mph - N/A   Clear
1:15 AM -4.5 °F -16.9 °F -9.8 °F 78% 30.52 in 10.0 mi WNW 5.8 mph - N/A   Clear
1:35 AM -4.9 °F -17.4 °F -10.3 °F 78% 30.53 in 10.0 mi WNW 5.8 mph - N/A   Clear
1:55 AM -5.1 °F -15.8 °F -10.3 °F 78% 30.53 in 10.0 mi WNW 4.6 mph - N/A   Clear
2:15 AM -5.3 °F -16.0 °F -10.5 °F 78% 30.54 in 10.0 mi WNW 4.6 mph - N/A   Clear
2:35 AM -5.4 °F -16.2 °F -10.7 °F 78% 30.55 in 10.0 mi WNW 4.6 mph - N/A   Clear
2:55 AM -5.8 °F -18.4 °F -11.2 °F 77% 30.55 in 10.0 mi WNW 5.8 mph - N/A   Clear
3:15 AM -6.0 °F -18.6 °F -11.2 °F 78% 30.55 in 10.0 mi WNW 5.8 mph - N/A   Clear
3:35 AM -6.0 °F -16.9 °F -11.2 °F 78% 30.55 in 10.0 mi WNW 4.6 mph - N/A   Clear
3:55 AM -6.2 °F -17.1 °F -11.2 °F 79% 30.55 in 10.0 mi WNW 4.6 mph - N/A   Clear
4:15 AM -6.5 °F -19.3 °F -11.2 °F 80% 30.56 in 10.0 mi WNW 5.8 mph - N/A   Clear
4:35 AM -6.7 °F -19.5 °F -11.4 °F 80% 30.56 in 10.0 mi WNW 5.8 mph - N/A   Clear
4:55 AM -6.9 °F -17.9 °F -11.7 °F 79% 30.56 in 10.0 mi WNW 4.6 mph - N/A   Clear
5:15 AM -7.1 °F -19.9 °F -11.7 °F 80% 30.56 in 10.0 mi WNW 5.8 mph - N/A   Clear
5:35 AM -7.2 °F -18.3 °F -12.1 °F 79% 30.57 in 10.0 mi WNW 4.6 mph - N/A   Clear
5:55 AM -7.6 °F -18.8 °F -12.3 °F 80% 30.57 in 10.0 mi West 4.6 mph - N/A   Clear
6:15 AM -7.6 °F -20.6 °F -12.3 °F 80% 30.58 in 10.0 mi WNW 5.8 mph - N/A   Clear
6:35 AM -8.0 °F -21.0 °F -12.5 °F 81% 30.57 in 10.0 mi WNW 5.8 mph - N/A   Clear
6:55 AM -8.1 °F -21.2 °F -13.0 °F 79% 30.58 in 10.0 mi WNW 5.8 mph - N/A   Clear
7:15 AM -8.5 °F -19.8 °F -13.0 °F 81% 30.59 in 10.0 mi West 4.6 mph - N/A   Clear
7:35 AM -8.5 °F -23.2 °F -13.0 °F 81% 30.59 in 10.0 mi West 6.9 mph - N/A   Clear
7:55 AM -8.5 °F -23.2 °F -13.2 °F 80% 30.60 in 10.0 mi West 6.9 mph - N/A   Clear
8:15 AM -7.8 °F -20.8 °F -13.0 °F 78% 30.60 in 10.0 mi West 5.8 mph - N/A   Clear
8:35 AM -7.6 °F -24.6 °F -13.2 °F 77% 30.61 in 10.0 mi West 9.2 mph - N/A   Clear
8:55 AM -7.1 °F -21.4 °F -13.0 °F 75% 30.62 in 10.0 mi WSW 6.9 mph - N/A   Clear
9:15 AM -6.7 °F -22.3 °F -13.0 °F 74% 30.62 in 10.0 mi West 8.1 mph - N/A   Clear
9:35 AM -5.8 °F -21.2 °F -12.6 °F 72% 30.62 in 10.0 mi WSW 8.1 mph - N/A   Clear
9:55 AM -5.1 °F -20.4 °F -12.1 °F 72% 30.63 in 10.0 mi West 8.1 mph - N/A   Clear
10:15 AM -4.5 °F -18.4 °F -11.9 °F 71% 30.63 in 10.0 mi West 6.9 mph - N/A   Clear
10:35 AM -3.5 °F -17.1 °F -11.2 °F 69% 30.63 in 10.0 mi WSW 6.9 mph - N/A   Clear
10:55 AM -2.9 °F -17.7 °F -11.0 °F 68% 30.63 in 10.0 mi West 8.1 mph - N/A   Clear
11:15 AM -2.2 °F -15.6 °F -11.0 °F 66% 30.62 in 10.0 mi West 6.9 mph - N/A   Clear
11:35 AM -1.5 °F -14.7 °F -10.3 °F 66% 30.61 in 10.0 mi West 6.9 mph - N/A   Clear
11:55 AM -0.9 °F -15.3 °F -9.8 °F 66% 30.61 in 10.0 mi WSW 8.1 mph - N/A   Clear
12:15 PM -0.6 °F -13.6 °F -9.4 °F 66% 30.60 in 10.0 mi West 6.9 mph - N/A   Clear
12:35 PM -0.0 °F -14.2 °F -9.6 °F 64% 30.60 in 10.0 mi West 8.1 mph - N/A   Clear
12:55 PM 0.7 °F -15.4 °F -9.0 °F 64% 30.60 in 10.0 mi West 10.4 mph - N/A   Clear
1:15 PM 1.0 °F -12.9 °F -9.0 °F 63% 30.59 in 10.0 mi West 8.1 mph - N/A   Clear
1:35 PM 1.2 °F -10.1 °F -9.8 °F 60% 30.58 in 10.0 mi West 5.8 mph - N/A   Clear
1:55 PM 2.1 °F -7.4 °F -9.8 °F 58% 30.58 in 10.0 mi West 4.6 mph - N/A   Clear
2:15 PM 2.3 °F -8.8 °F -9.6 °F 58% 30.58 in 10.0 mi West 5.8 mph - N/A   Clear
2:35 PM 2.5 °F -10.0 °F -8.9 °F 59% 30.57 in 10.0 mi West 6.9 mph - N/A   Clear
2:55 PM 3.0 °F -9.3 °F -8.1 °F 60% 30.58 in 10.0 mi West 6.9 mph - N/A   Clear
3:15 PM 3.0 °F -11.5 °F -8.9 °F 58% 30.58 in 10.0 mi West 9.2 mph - N/A   Clear
3:35 PM 3.2 °F -11.3 °F -8.7 °F 58% 30.58 in 10.0 mi West 9.2 mph - N/A   Clear
3:55 PM 3.2 °F -10.3 °F -8.7 °F 58% 30.58 in 10.0 mi West 8.1 mph - N/A   Clear
4:15 PM 3.0 °F -6.4 °F -8.5 °F 59% 30.58 in 10.0 mi West 4.6 mph - N/A   Clear
4:35 PM 2.3 °F -5.2 °F -8.1 °F 62% 30.58 in 10.0 mi NW 3.5 mph - N/A   Clear
4:55 PM 1.0 °F - -8.0 °F 66% 30.58 in 10.0 mi Calm Calm - N/A   Clear
5:15 PM 0.5 °F - -8.1 °F 67% 30.58 in 10.0 mi Calm Calm - N/A   Clear
5:35 PM -0.0 °F - -8.0 °F 69% 30.57 in 10.0 mi Calm Calm - N/A   Clear
5:55 PM -0.6 °F - -8.0 °F 71% 30.57 in 10.0 mi Calm Calm - N/A   Clear
6:15 PM -0.8 °F - -8.1 °F 71% 30.57 in 10.0 mi Calm Calm - N/A   Clear
6:35 PM -3.3 °F - -8.5 °F 78% 30.57 in 10.0 mi Calm Calm - N/A   Clear
6:55 PM -1.5 °F - -8.5 °F 72% 30.57 in 10.0 mi Calm Calm - N/A   Clear
7:15 PM -1.7 °F - -8.1 °F 74% 30.56 in 10.0 mi Calm Calm - N/A   Clear
7:35 PM -5.3 °F - -10.5 °F 78% 30.56 in 10.0 mi Calm Calm - N/A   Clear
7:55 PM -4.0 °F - -8.7 °F 80% 30.55 in 10.0 mi Calm Calm - N/A   Clear
8:15 PM -4.9 °F - -9.6 °F 80% 30.55 in 10.0 mi Calm Calm - N/A   Clear
8:35 PM -5.8 °F - -11.2 °F 77% 30.55 in 10.0 mi Calm Calm - N/A   Clear
8:55 PM -6.3 °F - -11.2 °F 79% 30.54 in 10.0 mi Calm Calm - N/A   Clear
9:15 PM -6.2 °F - -10.1 °F 83% 30.54 in 10.0 mi Calm Calm - N/A   Clear
9:35 PM -4.9 °F - -9.4 °F 81% 30.55 in 10.0 mi Calm Calm - N/A   Clear
9:55 PM -3.3 °F - -8.7 °F 78% 30.55 in 10.0 mi Calm Calm - N/A   Clear
10:15 PM -6.0 °F - -10.3 °F 82% 30.54 in 10.0 mi Calm Calm - N/A   Clear
10:35 PM -6.0 °F - -10.5 °F 81% 30.54 in 10.0 mi Calm Calm - N/A   Clear
10:55 PM -6.0 °F - -10.3 °F 82% 30.54 in 10.0 mi Calm Calm - N/A   Clear
11:15 PM -7.6 °F - -12.1 °F 81% 30.54 in 10.0 mi Calm Calm - N/A   Clear
11:35 PM -5.4 °F - -9.8 °F 82% 30.54 in 10.0 mi Calm Calm - N/A   Clear
11:55 PM -6.7 °F - -11.6 °F 79% 30.54 in 10.0 mi Calm Calm - N/A   Clear